Retour au catalogue

TITAN 3C TRANSTAGE DEB

LostHEO
NORAD 13958·DEBRIS·🇺🇸 United States

Lancé Dec 21, 1965 depuis Cape Canaveral Space Force Station

Loading…

Prochains Passages (prochaines 24 heures)

TLE

PériméSource: Space-Track

Époque: Aug 14, 2025, 11:27 UTC

1 13958U 65108X   25226.47724523 -.00000024  00000-0  66960-3 0  9994
2 13958  27.0653 294.1007 6815587 171.5223 338.5354  2.70123485210528

Suivez TITAN 3C TRANSTAGE DEB en temps réel avec AllMySat

Download on the App Store